[[{"header":{"parameterUnit":"m.s-1","parameterCategory":1,"la1":30.2991,"la2":30.254,"lo1":-89.0895,"lo2":-89.0444,"dy":0.0017,"dx":0.0017,"nx":28,"ny":28,"refTime":"2024-08-03T21:00:00:Z","depth":0,"parameterNumber":2,"parameterNumberName":"U-component_of_WINDS"},"data":[0,0,0,0,0,0,0,0,0,0,0,0,0,0,0,0,0,0,0,0,0,0,0,0,0,0,0,0,0,0,0,0,0,0,0,0,0,0,0,0,0,0,0,0,0,0,0,0,0,0,0,0,0,0,0,0,0,0,1.1181,1.1185,0,1.1549,1.1553,1.1557,1.1686,1.1685,1.1684,1.1682,1.2053,1.2063,1.2074,0,0,0,0,0,0,0,0,0,0,0,0,0,1.0589,1.0599,1.1181,1.1185,1.119,1.1548,1.1553,1.1558,1.1687,1.1685,1.1683,1.1682,1.2049,1.2062,1.2075,0,0,0,0,0,0,0,0,0,0,0,0,0,1.089,1.0602,1.118,1.1298,1.1312,1.1547,1.1553,1.1559,1.1687,1.1685,1.1683,1.1681,1.2045,1.2061,1.2077,1.222,0,0,1.2128,1.2135,0,0,0,0,0,0,0,0,1.0872,1.0911,1.1276,1.129,1.1306,1.157,1.148,1.1781,1.1688,1.1544,1.1682,1.168,1.1893,1.1922,1.1995,1.2238,1.2254,1.213,1.214,1.2147,1.2152,0,0,0,0,0,0,0,1.0851,1.0896,1.1326,1.1281,1.13,1.1331,1.1372,1.1538,1.1725,1.1557,1.1567,1.1609,1.1901,1.1979,1.2005,1.2259,1.2129,1.2144,1.2154,1.2161,1.2642,1.2645,0,0,0,0,0,0,1.0811,1.0878,1.1314,1.1337,1.108,1.1344,1.1389,1.1487,1.1724,1.1758,1.161,1.1614,1.1951,1.1985,1.2018,1.2205,1.2147,1.2162,1.2172,1.264,1.2643,1.2646,0,0,0,0,0,0,1.0798,1.0849,1.13,1.1111,1.1171,1.1356,1.1465,1.1495,1.1573,1.1765,1.1798,1.1656,1.1951,1.1995,1.2171,1.2219,1.217,1.2185,1.2636,1.2641,1.2645,1.2576,0,0,0,0,0,0,1.0781,1.0844,1.09,1.1111,1.118,1.1446,1.1468,1.1504,1.1603,1.161,1.1816,1.1848,1.1953,1.2145,1.2187,1.2241,1.2198,1.2633,1.2638,1.2643,1.2575,1.2577,1.258,0,0,0,0,0,1.0759,1.0863,1.0902,1.0954,1.1254,1.1448,1.1488,1.1608,1.1606,1.1664,1.1788,1.1841,1.2207,1.2162,1.2211,1.227,1.263,1.2637,1.2643,1.2574,1.2577,1.258,0,0,0,0,0,0,1.0649,1.0893,1.0938,1.1114,1.126,1.147,1.1547,1.1607,1.1755,1.1755,1.1897,1.1943,1.2108,1.2207,1.2152,1.2424,1.2422,1.2438,1.2353,1.2358,1.236,1.2332,1.2212,0,0,0,0,0,1.0646,1.0784,1.0989,1.1125,1.1196,1.1359,1.1448,1.1529,1.1684,1.1746,1.1882,1.203,1.218,1.2274,1.2421,1.259,1.2638,1.2656,1.2658,1.2659,1.2671,1.2772,1.2783,1.2667,1.2667,1.2667,0,0,1.0639,1.079,1.0868,1.1107,1.1229,1.137,1.1409,1.1555,1.166,1.1767,1.1943,1.2049,1.2223,1.2398,1.2481,1.2485,1.2715,1.2667,1.2667,1.2679,1.2779,1.279,1.28,1.2671,1.267,1.267,0,0,1.0699,1.0826,1.0956,1.1079,1.1266,1.1375,1.1405,1.1608,1.1684,1.1863,1.1948,1.2075,1.2327,1.245,1.2545,1.2658,1.2714,1.2702,1.2714,1.2811,1.282,1.2829,1.2871,1.2884,1.2714,1.2714,1.2714,0,1.0667,1.0883,1.1013,1.1157,1.126,1.1368,1.1501,1.1613,1.1837,1.1906,1.1908,1.2232,1.2356,1.2563,1.2591,1.2664,1.2704,1.2679,1.2808,1.2819,1.2829,1.2871,1.2886,1.2711,1.2712,1.2712,1.2712,0,1.0835,1.0984,1.1065,1.1284,1.1397,1.1533,1.1685,1.1783,1.1856,1.1964,1.2147,1.2302,1.2485,1.254,1.261,1.2758,1.2755,1.2781,1.2782,1.2835,1.2877,1.2894,1.2708,1.2709,1.2709,1.271,0,0,1.0831,1.1125,1.1153,1.1255,1.1472,1.1589,1.1732,1.1914,1.1997,1.2149,1.2273,1.2488,1.2515,1.2623,1.2709,1.2793,1.2877,1.281,1.2817,1.2818,1.3052,1.3031,1.3048,1.2916,1.292,1.2922,1.3038,0,1.092,1.1182,1.1307,1.1514,1.1655,1.1762,1.1887,1.2034,1.214,1.2275,1.2392,1.2543,1.2566,1.2633,1.2722,1.2848,1.2926,1.2841,1.3033,1.3038,1.2986,1.3069,1.3047,1.3148,1.3055,1.3058,1.306,0,1.1058,1.1215,1.1436,1.1642,1.1706,1.1816,1.1996,1.2123,1.2292,1.2364,1.2488,1.2573,1.2728,1.2719,1.2936,1.2876,1.2962,1.3036,1.3043,1.3065,1.3051,1.3094,1.3183,1.3198,1.3087,1.3085,1.3083,0,1.1035,1.1301,1.147,1.1554,1.1797,1.1873,1.1977,1.2146,1.2249,1.2406,1.2475,1.2645,1.2739,1.287,1.2999,1.298,1.3204,1.3205,1.3268,1.3265,1.3309,1.3304,1.3413,1.3364,1.3363,1.3363,1.3363,0,1.1121,1.1253,1.1464,1.1567,1.1719,1.1862,1.2009,1.2121,1.2271,1.2399,1.2501,1.2618,1.2782,1.292,1.3021,1.3187,1.3228,1.329,1.3316,1.3282,1.3274,1.3339,1.3336,1.3367,1.3366,1.3365,1.3365,0,1.1119,1.1266,1.1458,1.1675,1.1733,1.1835,1.2021,1.2126,1.224,1.2401,1.2447,1.2625,1.2793,1.2936,1.3155,1.3224,1.3396,1.3426,1.334,1.3353,1.3409,1.3402,1.3564,1.3594,1.3522,1.3522,1.3523,0,1.1164,1.1269,1.15,1.1595,1.1699,1.1849,1.1957,1.2103,1.2211,1.2416,1.2497,1.2674,1.2823,1.3087,1.3235,1.3405,1.344,1.3486,1.3466,1.343,1.3443,1.3435,1.3448,1.3486,1.3486,1.3486,1.3486,0,1.1229,1.1299,1.1451,1.1631,1.1758,1.1905,1.2055,1.2126,1.23,1.2416,1.2592,1.2708,1.2937,1.3112,1.3299,1.3406,1.3476,1.3492,1.3516,1.3482,1.3428,1.346,1.3344,1.3487,1.3487,1.3487,1.3487,1.3487,1.1254,1.1354,1.1534,1.1702,1.1832,1.1971,1.2082,1.2213,1.2363,1.2562,1.2639,1.282,1.2991,1.3251,1.336,1.3503,1.3512,1.3545,1.3554,1.3561,1.3557,1.3406,1.3537,1.3537,1.3537,1.3537,1.3538,0,1.1325,1.1448,1.1602,1.1811,1.1944,1.2003,1.2173,1.228,1.2438,1.2594,1.2741,1.2945,1.3117,1.3281,1.3461,1.3544,1.3581,1.3587,1.3582,1.3606,1.3537,1.3499,1.3554,1.3554,1.3554,1.3554,1.3554,1.3554,1.1378,1.1552,1.1644,1.1884,1.2006,1.2186,1.2279,1.2409,1.2535,1.2759,1.2904,1.3012,1.3172,1.3366,1.3527,1.3571,1.3632,1.363,1.3682,1.3614,1.361,1.3607,1.3572,1.3642,1.3642,1.374,1.3741,1.3741]},{"header":{"parameterUnit":"m.s-1","parameterCategory":1,"la1":30.2991,"la2":30.254,"lo1":-89.0895,"lo2":-89.0444,"dy":0.0017,"dx":0.0017,"nx":28,"ny":28,"refTime":"2024-08-03T21:00:00:Z","depth":0,"parameterNumber":3,"parameterNumberName":"V-component_of_WINDS"},"data":[0,0,0,0,0,0,0,0,0,0,0,0,0,0,0,0,0,0,0,0,0,0,0,0,0,0,0,0,0,0,0,0,0,0,0,0,0,0,0,0,0,0,0,0,0,0,0,0,0,0,0,0,0,0,0,0,0,0,3.9978,3.9977,0,3.9887,3.9886,3.9885,3.9779,3.9777,3.9775,3.9774,3.9678,3.9677,3.9676,0,0,0,0,0,0,0,0,0,0,0,0,0,4.0059,4.0058,3.9978,3.9977,3.9976,3.9887,3.9886,3.9884,3.9779,3.9777,3.9775,3.9773,3.9678,3.9677,3.9676,0,0,0,0,0,0,0,0,0,0,0,0,0,4.0001,4.0057,3.9979,3.9913,3.9906,3.9887,3.9886,3.9884,3.9779,3.9777,3.9775,3.9772,3.9679,3.9677,3.9676,3.9713,0,0,3.9671,3.967,0,0,0,0,0,0,0,0,4.0005,3.9998,3.9924,3.9917,3.991,3.9842,3.9878,3.9827,3.978,3.9827,3.9774,3.9771,3.9734,3.9728,3.9716,3.9709,3.9705,3.967,3.9669,3.9669,3.9668,0,0,0,0,0,0,0,4.0009,4.0002,3.9942,3.9923,3.9914,3.9887,3.9876,3.9868,3.9795,3.9823,3.9815,3.9806,3.973,3.9718,3.9713,3.9703,3.9671,3.9669,3.9668,3.9667,3.9718,3.972,0,0,0,0,0,0,4.0023,4.0006,3.9945,3.9939,3.9952,3.9887,3.9875,3.9866,3.9795,3.9782,3.9808,3.9801,3.9722,3.9715,3.9709,3.9745,3.9669,3.9667,3.9666,3.9716,3.9719,3.9721,0,0,0,0,0,0,4.0025,4.0019,3.9948,3.997,3.9959,3.9888,3.9879,3.9865,3.9853,3.9784,3.977,3.9809,3.9719,3.9711,3.9712,3.974,3.9667,3.9665,3.9713,3.9717,3.972,3.982,0,0,0,0,0,0,4.0028,4.002,4.0034,3.9971,3.9959,3.9955,3.9881,3.9865,3.9851,3.9841,3.9781,3.9769,3.9717,3.9715,3.9711,3.9737,3.9664,3.971,3.9715,3.9719,3.9814,3.9827,3.9837,0,0,0,0,0,4.0031,4.0067,4.0036,4.0029,3.9975,3.9957,3.9949,3.9889,3.9854,3.9866,3.9822,3.9771,3.9739,3.9716,3.971,3.9736,3.9708,3.9713,3.9718,3.9809,3.9824,3.9837,0,0,0,0,0,0,4.0134,4.0057,4.0022,4.0039,4.0005,3.9939,3.9953,3.9908,3.9884,3.9876,3.9802,3.9789,3.9798,3.9768,3.9744,3.9767,3.9716,3.972,3.9786,3.9801,3.9812,3.9818,3.9663,0,0,0,0,0,4.0159,4.0152,4.0084,4.0105,4.009,4.0025,4.0015,3.9972,3.9934,3.9919,3.9874,3.9838,3.9819,3.9809,3.9788,3.981,3.9793,3.9825,3.9836,3.9846,3.985,3.9855,3.9867,3.9738,3.9738,3.9738,0,0,4.021,4.0167,4.0167,4.0125,4.0094,4.0085,4.0014,4.0009,4.0002,3.9918,3.9915,3.9881,3.9836,3.9846,3.9849,3.9821,3.9882,3.9853,3.9862,3.9859,3.9862,3.9874,3.9885,3.9742,3.9741,3.974,0,0,4.0298,4.0266,4.0278,4.0249,4.0203,4.0159,4.0162,4.0103,4.0077,4.0073,4.0009,3.9999,3.997,3.9939,3.9919,3.9994,3.9945,3.999,4.005,4.0056,4.0066,4.0075,4.0098,4.0108,3.9994,3.9995,3.9995,0,4.0366,4.0353,4.029,4.0289,4.0271,4.0195,4.0206,4.018,4.0129,4.0118,4.0088,4.0048,4.0012,4.0013,4.0031,4.0019,4.0018,3.9995,4.007,4.0078,4.0085,4.0106,4.0116,4.0,3.9999,3.9999,3.9998,0,4.0438,4.0429,4.0444,4.0397,4.0382,4.0387,4.0323,4.0315,4.0273,4.0232,4.0227,4.0182,4.015,4.0147,4.0107,4.0141,4.0125,4.0084,4.003,4.0104,4.0122,4.013,4.0008,4.0006,4.0004,4.0003,0,0,4.0586,4.0504,4.0511,4.0487,4.0431,4.0422,4.0423,4.0391,4.0383,4.0352,4.0348,4.0324,4.0285,4.0263,4.0218,4.0224,4.0282,4.0181,4.0179,4.0199,4.0312,4.0341,4.0352,4.025,4.0251,4.0252,4.0315,0,4.0661,4.0657,4.0601,4.0613,4.0602,4.053,4.053,4.0494,4.0456,4.044,4.0397,4.038,4.0332,4.0318,4.0321,4.0274,4.0303,4.0269,4.0242,4.0242,4.0253,4.0362,4.0393,4.0454,4.0322,4.0323,4.0324,0,4.0747,4.072,4.0731,4.0672,4.0665,4.0667,4.0632,4.0619,4.0576,4.0547,4.0523,4.0472,4.0465,4.0417,4.0405,4.0384,4.037,4.0345,4.0346,4.0338,4.0286,4.0354,4.0472,4.048,4.0335,4.0334,4.0334,0,4.0849,4.0816,4.0817,4.08,4.0733,4.0734,4.0706,4.0661,4.0645,4.0615,4.0603,4.0572,4.0554,4.0531,4.0472,4.0443,4.0465,4.0413,4.0439,4.044,4.0444,4.0444,4.0559,4.0441,4.0441,4.0441,4.0441,0,4.0937,4.0945,4.0862,4.0863,4.087,4.0804,4.0812,4.0777,4.0737,4.0728,4.0665,4.0657,4.0581,4.0564,4.0518,4.0513,4.0507,4.0481,4.0468,4.0485,4.0488,4.0472,4.0465,4.0443,4.0443,4.0442,4.0442,0,4.1051,4.0996,4.0992,4.0929,4.0913,4.0921,4.0865,4.0862,4.082,4.0809,4.0802,4.0736,4.0712,4.0652,4.0613,4.0581,4.0588,4.0566,4.0602,4.0593,4.0621,4.0618,4.0727,4.0736,4.0617,4.0618,4.0619,0,4.1108,4.1113,4.1051,4.104,4.1015,4.1,4.0983,4.0919,4.0903,4.0854,4.0856,4.0828,4.0801,4.0767,4.0713,4.0682,4.0657,4.0697,4.0651,4.0667,4.0653,4.0652,4.065,4.0706,4.0708,4.0709,4.071,0,4.1215,4.1187,4.1167,4.1136,4.1118,4.1091,4.106,4.1054,4.0982,4.0968,4.0943,4.0923,4.0883,4.0854,4.0814,4.0782,4.0733,4.0725,4.0729,4.0744,4.0764,4.075,4.0626,4.0722,4.0721,4.072,4.072,4.0719,4.1299,4.13,4.1255,4.1233,4.1204,4.1176,4.1169,4.1126,4.1105,4.1068,4.1031,4.101,4.0964,4.0906,4.0878,4.0858,4.0833,4.0839,4.084,4.0842,4.0848,4.077,4.0851,4.0851,4.085,4.085,4.0849,0,4.1399,4.1367,4.1349,4.1307,4.129,4.1248,4.121,4.1198,4.118,4.1143,4.1118,4.1089,4.106,4.1005,4.0971,4.0966,4.0942,4.0958,4.0956,4.0949,4.0874,4.0873,4.0978,4.0978,4.0978,4.0978,4.0978,4.0978,4.1449,4.1446,4.1413,4.1394,4.1361,4.1341,4.1323,4.1296,4.1266,4.1236,4.1213,4.1178,4.1132,4.1094,4.1064,4.1048,4.1037,4.106,4.1037,4.0967,4.0955,4.0943,4.0941,4.1059,4.106,4.1113,4.1114,4.1114]}]]